SCP
0 0 0 0 0 0 0 0 0 0 0 0 0 0 0 0 0 0 0 0 0 0 0 0 0 0 0 0 0 0 0 0 0 0 0 0 0 0 0 0 0 0 0 0 0
0 0 0 0 0 0 0 0 0 0 0 0 0 0 0 0 0 0 0 0 0 0 0 0 0 0 0 0 0 0 0 0 0 0 0 0 0 0 0 0 0 0 0 0 0
0 0 0 0 0 0 0 0 0 0 0 0 0 0 0 0 0 0 0 0 0 0 0 0 0 0 0 0 0 0 0 0 0 0 0 0 0 0 0 0 0 0 0 0 0
0 0 0 0 0 0 0 0 0 0 0 0 0 0 0 0 0 0 0 0 0 0 0 0 0 0 0 0 0 0 0 0 0 0 0 0 0 0 0 0 0 0 0 0 0
0 0 0 0 0 0 0 0 0 0 0 0 0 0 0 0 0 0 0 0 0 0 0 0 0 0 0 0 0 0 0 0 0 0 0 0 0 0 0 0 0 0 0 0 0
0 0 0 0 0 0 0 0 0 0 0 0 0 0 0 0 0 0 0 0 0 0 0 0 0 0 0 0 0 0 0 0 0 0 0 0 0 0 0 0 0 0 0 0 0
0 0 0 0 0 0 0 0 0 0 0 0 0 0 0 0 0 0 0 0 0 0 0 0 0 0 0 0 0 0 0 0 0 0 0 0 0 0 0 0 0 0 0 0 0
0 0 0 0 0 0 0 0 0 0 0 0 0 0 0 0 0 0 0 0 0 0 0 0 0 0 0 0 0 0 0 0 0 0 0 0 0 0 0 0 0 0 0 0 0
0 0 0 0 -0 -0 -0 -0 -0 -0 -0 -0 0 0 0 0 0 0 0 0 0 0 0 0 0 0 0 0 0 0 0 0 0 0 0 0 0 0 0 0 0 0 0 0 0
0 0 0 0 -0 -0 -0 0 -0 0 0 -0 -0 0 0 0 0 0 0 0 0 0 0 0 0 0 0 0 0 0 0 0 0 0 0 0 0 0 0 0 0 0 0 0 0
0 0 0 -0 -0 -0 -0 0 0 -0 -0 0 0 0 0 0 0 0 0 0 0 0 0 0 0 0 0 0 0 0 0 0 0 0 0 0 0 0 0 0 0 0 0 0 0
0 -0 -0 -0 -0 -0 0 0 -0 0 -0 -0 -0 -0 0 0 0 0 0 0 0 0 0 0 0 0 0 0 0 0 0 0 0 0 0 0 0 0 0 0 0 0 0 0 0
0 -0 -0 -0 0 0 0 -0 0 -0 -0 0 0 0 0 0 0 0 0 0 0 0 0 0 0 0 0 0 0 0 0 0 0 0 0 0 0 0 0 0 0 0 0 0 0
-0 -0 -0 -0 0 0 0 0 0 0 -0 0 0 0 0 0 0 0 0 0 0 0 0 0 0 0 0 0 0 0 0 0 0 0 0 0 0 0 0 0 0 0 0 0 0
-0 -0 -0 -0 -0 0 0 0 0 0 0 -0 0 0 0 0 0 0 0 0 0 0 0 0 0 0 0 0 0 0 0 0 0 0 0 0 0 0 0 0 0 0 0 0 0
-0 0 0 0 0 0 0 -0 0 0 0 -0 0 0 0 0 0 0 0 0 0 0 0 0 0 0 0 0 0 0 0 0 0 0 0 0 0 0 0 0 0 0 0 0 0
-0 0 0 -0 0 -0 0 -0 0 0 0 -0 0 0 0 0 0 0 0 0 0 0 0 0 0 0 0 0 0 0 0 0 0 0 0 0 0 0 0 0 0 0 0 0 0
-0 0 0 0 0 -0 -0 0 0 0 0 -0 0 0 0 0 0 0 0 0 0 0 0 0 0 0 0 0 0 0 0 0 0 0 0 0 0 0 0 0 0 0 0 0 0
-0 0 0 0 -0 -0 -0 0 0 0 0 0 0 0 0 0 0 0 0 0 0 0 0 0 0 0 0 0 0 0 0 0 0 0 0 0 0 0 0 0 0 0 0 0 0
-0 -0 -0 0 -0 -0 -0 -0 0 -0 0 0 0 0 -0 0 0 0 0 0 0 0 0 0 0 0 0 0 0 0 0 0 0 0 0 0 0 0 0 0 0 0 0 0 0
-0 -0 0 -0 -0 0 -0 -0 0 0 0 0 0 0 0 0 0 0 0 0 0 0 0 0 0 0 0 0 0 0 0 0 0 0 0 0 0 0 0 0 0 0 0 0 0
0 0 0 0 -0 -0 -0 0 0 -0 0 0 -0 0 -0 -0 0 0 0 0 0 0 0 0 0 0 0 0 0 0 0 0 0 0 0 0 0 0 0 0 0 0 0 0 0
0 0 0 0 -0 -0 0 0 0 -0 0 -0 0 0 -0 0 0 0 0 0 0 0 0 0 0 0 0 0 0 0 0 0 0 0 0 0 0 0 0 0 0 0 0 0 0
0 0 0 0 0 0 0 0 0 0 -0 -0 0 -0 0 -0 0 0 0 0 0 0 0 0 0 0 0 0 0 0 0 0 0 0 0 0 0 0 0 0 0 0 0 0 0
0 0 0 0 0 -0 0 0 0 -0 0 -0 -0 -0 -0 0 0 0 0 0 0 0 0 0 0 0 0 0 0 0 0 0 0 0 0 0 0 0 0 0 0 0 0 0 0
0 0 0 0 0 0 0 0 -0 0 0 -0 -0 -0 0 0 0 0 0 0 0 0 0 0 0 0 0 0 0 0 0 0 0 0 0 0 0 0 0 0 0 0 0 0 0
0 0 0 0 0 0 0 0 0 0 0 0 0 0 0 0 0 0 0 0 0 0 0 0 0 0 0 0 0 0 0 0 0 0 0 0 0 0 0 0 0 0 0 0 0
Wind_Speed_500mb
24 24 26 27 26 28 29 30 30 29 30 31 33 40 44 46 50 36 44 35 21 35 23 14 13 11 13 16 16 9 15 20 22 17 13 22 24 12 6 6 13 11 1 11 31
26 27 28 28 28 28 29 29 30 30 30 31 32 38 41 45 45 49 50 50 42 27 24 16 16 15 17 21 13 18 20 28 7 13 12 29 27 22 13 17 16 15 11 16 28
26 28 29 26 25 27 28 29 30 31 31 31 32 34 37 33 39 33 31 42 39 32 28 19 15 14 26 21 27 19 25 17 6 9 13 28 25 21 16 14 17 20 22 24 30
26 25 28 19 21 25 27 26 27 30 32 32 32 32 32 17 13 7 19 31 42 35 25 22 21 21 17 23 29 20 27 13 11 10 19 27 24 19 23 1 2 9 16 28 32
21 24 25 17 19 21 25 26 28 28 30 30 32 32 29 26 50 23 19 27 41 42 33 30 33 26 21 18 23 27 10 6 10 16 16 19 21 8 23 15 8 11 20 28 30
22 22 21 20 21 23 25 26 27 28 29 31 32 32 25 44 29 29 20 9 26 39 34 32 29 33 16 8 13 8 4 8 11 15 13 17 11 5 17 17 14 17 23 28 30
21 18 18 22 26 25 25 26 27 29 30 33 33 32 33 54 19 20 18 15 24 32 30 30 28 25 17 9 4 1 11 7 11 12 6 9 13 22 12 16 17 19 23 27 30
19 19 19 24 27 26 25 27 29 31 32 33 32 24 36 30 32 46 29 25 24 27 25 24 23 28 16 5 10 13 7 9 10 3 8 10 19 21 15 16 18 21 24 28 31
16 20 20 24 23 23 27 28 30 32 33 28 22 18 31 18 30 31 27 25 23 25 22 23 23 28 25 22 19 18 22 29 17 8 4 15 17 14 9 14 18 21 26 30 32
14 18 13 12 14 20 24 25 25 31 21 16 22 19 26 6 14 20 29 25 29 30 23 26 23 19 24 25 28 31 33 27 22 19 20 20 30 11 14 16 21 25 29 32 35
11 16 7 9 13 17 17 18 15 10 19 27 5 31 12 24 13 20 28 30 26 35 25 32 25 30 39 32 31 12 21 27 6 6 8 24 27 22 20 23 21 27 31 34 35
5 11 3 6 8 12 11 7 15 15 25 31 45 41 40 25 14 25 26 27 30 32 33 19 29 32 28 33 26 21 22 22 9 7 4 29 39 31 11 10 11 18 28 35 34
3 12 1 2 6 6 9 16 19 23 16 2 12 19 10 10 14 26 28 25 29 35 35 28 15 6 13 17 25 25 24 18 15 8 13 28 29 33 14 9 2 5 13 23 33
8 11 9 8 8 9 8 9 25 14 12 11 11 6 6 5 8 6 14 11 15 29 30 30 14 12 19 28 25 28 12 8 13 8 13 10 16 16 15 9 4 12 13 7 19
10 10 6 2 7 6 10 21 14 2 3 5 10 3 5 9 20 11 10 13 19 21 20 13 16 20 20 6 21 8 12 11 9 15 12 25 10 3 10 11 11 19 18 11 6
12 10 6 6 9 6 17 22 3 8 4 6 3 9 15 5 4 10 12 5 8 13 12 19 13 6 7 8 10 19 15 11 8 11 16 22 14 7 6 11 9 14 20 17 8
16 13 9 12 5 22 22 15 8 7 4 5 1 8 7 8 8 18 23 18 13 21 20 21 13 10 19 19 11 13 14 9 13 10 9 7 8 9 12 10 10 13 19 21 18
17 18 17 18 20 26 18 10 7 15 2 5 2 8 2 2 4 9 16 13 8 16 25 20 14 15 6 6 8 20 13 15 12 12 2 10 11 11 14 14 17 18 20 23 24
15 21 25 16 19 11 12 16 14 10 9 6 11 14 5 6 8 7 9 5 9 11 10 16 12 11 8 1 7 12 13 8 13 14 15 15 13 13 13 15 18 20 21 22 22
8 16 24 21 13 4 12 19 9 4 7 5 2 15 19 6 2 5 12 3 1 5 10 6 10 2 7 4 5 7 4 6 9 9 15 12 8 7 21 18 18 20 22 22 21
12 13 18 14 8 15 15 14 6 2 5 8 10 7 6 6 10 13 4 6 1 1 8 6 5 9 7 14 7 10 10 9 8 7 10 13 7 13 21 20 17 19 18 18 17
14 11 10 12 13 17 13 5 5 7 6 7 8 9 8 14 8 8 4 7 6 7 3 5 7 10 9 7 4 7 8 12 10 10 8 7 3 3 17 15 16 17 16 14 14
19 20 13 16 12 16 12 8 8 7 7 4 5 4 1 8 9 6 5 3 5 5 3 2 7 9 10 8 6 10 16 13 6 3 17 13 4 9 14 16 16 18 17 14 11
17 8 16 25 32 19 23 21 13 7 7 6 4 4 5 7 4 6 8 3 2 2 7 8 4 10 9 11 6 9 16 18 20 11 16 17 10 18 16 16 18 15 14 13 8
12 13 7 8 25 26 22 13 14 8 8 7 6 15 12 9 9 8 7 7 3 1 5 6 6 4 4 3 4 7 9 18 25 26 20 17 9 9 7 15 17 16 15 13 11
10 17 6 31 14 15 20 22 25 11 7 7 11 3 8 8 7 5 12 10 3 10 7 3 2 2 6 3 7 15 18 21 23 26 25 23 28 16 10 6 12 15 15 14 11
26 30 21 8 16 16 20 20 17 11 6 4 7 7 9 6 5 11 10 11 9 8 8 5 4 3 2 1 10 20 22 26 17 13 16 18 8 9 8 12 15 13 12 10 6
Wind_Direction_500mb
305 302 296 286 287 301 308 303 304 303 302 303 300 302 306 306 289 281 262 237 230 250 259 255 275 252 248 242 233 249 248 241 227 228 163 163 175 176 172 166 194 185 78 110 167
309 312 307 294 284 289 300 298 299 302 303 304 304 304 307 312 300 282 252 244 228 238 249 248 247 235 230 241 222 227 232 244 280 190 169 178 191 173 187 199 201 198 189 165 172
301 306 309 301 288 287 290 298 297 301 303 304 306 307 310 319 308 268 252 246 228 226 236 241 239 236 239 226 228 218 247 246 132 191 191 179 192 178 209 202 233 214 200 188 183
294 306 310 296 293 284 282 293 298 300 304 306 307 308 310 307 250 327 246 222 211 208 220 228 221 223 233 218 233 248 236 273 150 161 173 174 181 199 214 168 94 209 191 186 189
294 302 320 289 297 292 282 288 295 299 301 304 305 308 312 258 248 290 305 226 199 204 211 213 216 214 227 241 229 233 223 226 170 167 183 170 179 211 217 220 220 194 181 187 192
305 287 312 291 279 286 284 284 292 295 297 299 302 302 291 270 258 258 292 238 197 196 211 212 222 213 269 269 243 329 195 175 179 159 168 192 177 206 210 191 207 197 191 190 193
308 286 293 289 274 284 290 287 291 291 294 297 298 297 275 249 245 226 278 243 212 205 208 212 216 185 209 226 236 359 185 173 206 183 141 253 216 224 174 185 197 199 194 193 194
316 304 281 283 274 274 288 286 287 285 288 293 295 288 268 268 262 254 257 243 224 213 205 199 191 200 193 106 159 220 218 220 129 187 90 281 260 111 161 183 205 202 198 198 199
329 316 286 281 271 274 286 287 287 288 288 287 291 258 271 287 242 226 228 215 200 194 195 180 178 190 180 199 202 205 217 216 239 259 237 219 274 102 161 199 213 220 217 205 205
337 309 301 306 290 287 292 295 299 289 293 270 256 266 256 309 217 216 202 197 181 173 161 180 198 199 205 199 212 211 223 207 232 233 254 243 259 237 184 222 242 239 231 220 214
335 291 303 308 300 300 308 328 292 230 238 236 320 241 295 329 239 195 185 180 186 184 186 194 207 208 203 216 231 267 225 227 219 52 280 270 278 285 260 209 247 256 250 232 221
318 273 341 311 318 317 316 309 355 319 298 262 250 261 274 290 237 175 175 183 186 195 190 171 218 211 217 215 227 238 226 215 194 139 284 318 287 281 323 300 298 284 257 243 222
225 257 151 65 18 360 306 284 305 317 264 196 234 255 272 205 210 166 185 220 195 209 199 199 171 135 178 194 210 215 242 221 231 143 198 263 266 246 160 160 124 340 281 261 231
180 232 145 105 31 286 293 293 320 298 272 129 168 163 184 230 187 172 204 228 216 199 197 235 123 163 187 216 228 232 172 247 197 204 249 214 287 224 160 170 105 15 7 305 235
194 228 179 173 195 269 286 319 329 131 288 106 129 115 216 260 129 175 205 224 203 167 201 135 159 168 205 221 191 222 156 183 203 244 291 234 253 195 163 184 33 21 20 25 222
220 225 269 283 298 275 309 339 350 239 49 108 3 180 184 239 164 123 193 236 29 156 214 109 89 132 82 100 258 143 140 164 213 253 247 250 219 203 118 29 1 32 41 47 90
243 247 252 272 273 297 319 319 276 325 82 78 54 207 180 174 165 196 188 182 195 165 171 141 125 109 156 125 140 218 197 219 207 198 254 102 222 29 88 53 62 75 69 70 91
249 261 266 281 290 306 318 252 324 25 272 116 264 218 19 285 142 182 181 199 236 290 174 178 162 169 165 312 210 204 275 270 289 293 74 163 236 96 102 100 102 97 89 86 86
254 274 274 289 288 304 277 275 12 23 340 326 101 229 325 242 276 231 233 201 32 349 309 197 103 112 54 346 328 144 225 8 281 253 271 249 121 133 133 118 115 104 97 90 90
257 268 268 260 274 234 265 275 345 48 317 287 344 178 195 193 194 307 187 76 273 338 331 37 116 44 122 177 78 317 28 199 202 260 254 181 237 127 172 151 134 121 106 99 96
247 253 234 250 213 238 264 336 329 177 229 258 311 281 60 158 190 231 21 111 4 342 308 304 279 126 178 207 169 170 209 235 307 285 298 294 96 54 158 153 144 125 117 114 107
257 237 223 210 231 231 271 17 336 264 229 265 282 297 158 223 230 231 224 17 17 334 214 36 306 159 136 90 345 308 272 242 249 172 241 293 296 105 109 139 153 145 143 133 129
258 241 253 193 255 242 207 255 263 252 244 261 269 285 299 203 219 201 161 57 11 307 349 115 220 162 166 175 178 227 206 241 273 291 265 275 89 112 136 161 172 173 172 167 156
284 233 197 211 254 275 289 271 241 225 257 262 296 245 244 225 248 180 143 116 344 335 337 298 283 304 8 58 86 187 204 216 227 241 262 236 263 179 181 192 191 193 194 187 184
232 252 301 204 237 238 252 283 269 241 230 231 216 243 236 239 208 176 131 136 139 248 260 282 246 268 46 23 327 298 224 212 227 247 274 294 303 320 239 217 222 210 205 208 224
250 256 249 265 278 255 222 251 253 232 243 211 248 221 237 275 350 219 176 195 150 183 210 201 119 295 245 234 277 270 256 247 240 253 266 279 282 321 303 207 194 205 210 233 257
237 272 295 277 233 241 232 243 252 228 212 277 294 209 215 81 75 70 79 66 105 169 168 188 168 225 205 67 288 264 247 231 237 244 253 257 21 104 134 185 202 204 220 252 282
Wind_Speed_850mb
24 24 26 27 26 28 29 30 30 29 30 31 33 40 44 46 50 36 44 35 21 35 23 14 13 11 13 16 16 9 15 20 22 17 13 22 24 12 6 6 13 11 1 11 31
26 27 28 28 28 28 29 29 30 30 30 31 32 38 41 45 45 49 50 50 42 27 24 16 16 15 17 21 13 18 20 28 7 13 12 29 27 22 13 17 16 15 11 16 28
26 28 29 26 25 27 28 29 30 31 31 31 32 34 37 33 39 33 31 42 39 32 28 19 15 14 26 21 27 19 25 17 6 9 13 28 25 21 16 14 17 20 22 24 30
26 25 28 19 21 25 27 26 27 30 32 32 32 32 32 17 13 7 19 31 42 35 25 22 21 21 17 23 29 20 27 13 11 10 19 27 24 19 23 1 2 9 16 28 32
21 24 25 17 19 21 25 26 28 28 30 30 32 32 29 26 50 23 19 27 41 42 33 30 33 26 21 18 23 27 10 6 10 16 16 19 21 8 23 15 8 11 20 28 30
22 22 21 20 21 23 25 26 27 28 29 31 32 32 25 44 29 29 20 9 26 39 34 32 29 33 16 8 13 8 4 8 11 15 13 17 11 5 17 17 14 17 23 28 30
21 18 18 22 26 25 25 26 27 29 30 33 33 32 33 54 19 20 18 15 24 32 30 30 28 25 17 9 4 1 11 7 11 12 6 9 13 22 12 16 17 19 23 27 30
19 19 19 24 27 26 25 27 29 31 32 33 32 24 36 30 32 46 29 25 24 27 25 24 23 28 16 5 10 13 7 9 10 3 8 10 19 21 15 16 18 21 24 28 31
16 20 20 24 23 23 27 28 30 32 33 28 22 18 31 18 30 31 27 25 23 25 22 23 23 28 25 22 19 18 22 29 17 8 4 15 17 14 9 14 18 21 26 30 32
14 18 13 12 14 20 24 25 25 31 21 16 22 19 26 6 14 20 29 25 29 30 23 26 23 19 24 25 28 31 33 27 22 19 20 20 30 11 14 16 21 25 29 32 35
11 16 7 9 13 17 17 18 15 10 19 27 5 31 12 24 13 20 28 30 26 35 25 32 25 30 39 32 31 12 21 27 6 6 8 24 27 22 20 23 21 27 31 34 35
5 11 3 6 8 12 11 7 15 15 25 31 45 41 40 25 14 25 26 27 30 32 33 19 29 32 28 33 26 21 22 22 9 7 4 29 39 31 11 10 11 18 28 35 34
3 12 1 2 6 6 9 16 19 23 16 2 12 19 10 10 14 26 28 25 29 35 35 28 15 6 13 17 25 25 24 18 15 8 13 28 29 33 14 9 2 5 13 23 33
8 11 9 8 8 9 8 9 25 14 12 11 11 6 6 5 8 6 14 11 15 29 30 30 14 12 19 28 25 28 12 8 13 8 13 10 16 16 15 9 4 12 13 7 19
10 10 6 2 7 6 10 21 14 2 3 5 10 3 5 9 20 11 10 13 19 21 20 13 16 20 20 6 21 8 12 11 9 15 12 25 10 3 10 11 11 19 18 11 6
12 10 6 6 9 6 17 22 3 8 4 6 3 9 15 5 4 10 12 5 8 13 12 19 13 6 7 8 10 19 15 11 8 11 16 22 14 7 6 11 9 14 20 17 8
16 13 9 12 5 22 22 15 8 7 4 5 1 8 7 8 8 18 23 18 13 21 20 21 13 10 19 19 11 13 14 9 13 10 9 7 8 9 12 10 10 13 19 21 18
17 18 17 18 20 26 18 10 7 15 2 5 2 8 2 2 4 9 16 13 8 16 25 20 14 15 6 6 8 20 13 15 12 12 2 10 11 11 14 14 17 18 20 23 24
15 21 25 16 19 11 12 16 14 10 9 6 11 14 5 6 8 7 9 5 9 11 10 16 12 11 8 1 7 12 13 8 13 14 15 15 13 13 13 15 18 20 21 22 22
8 16 24 21 13 4 12 19 9 4 7 5 2 15 19 6 2 5 12 3 1 5 10 6 10 2 7 4 5 7 4 6 9 9 15 12 8 7 21 18 18 20 22 22 21
12 13 18 14 8 15 15 14 6 2 5 8 10 7 6 6 10 13 4 6 1 1 8 6 5 9 7 14 7 10 10 9 8 7 10 13 7 13 21 20 17 19 18 18 17
14 11 10 12 13 17 13 5 5 7 6 7 8 9 8 14 8 8 4 7 6 7 3 5 7 10 9 7 4 7 8 12 10 10 8 7 3 3 17 15 16 17 16 14 14
19 20 13 16 12 16 12 8 8 7 7 4 5 4 1 8 9 6 5 3 5 5 3 2 7 9 10 8 6 10 16 13 6 3 17 13 4 9 14 16 16 18 17 14 11
17 8 16 25 32 19 23 21 13 7 7 6 4 4 5 7 4 6 8 3 2 2 7 8 4 10 9 11 6 9 16 18 20 11 16 17 10 18 16 16 18 15 14 13 8
12 13 7 8 25 26 22 13 14 8 8 7 6 15 12 9 9 8 7 7 3 1 5 6 6 4 4 3 4 7 9 18 25 26 20 17 9 9 7 15 17 16 15 13 11
10 17 6 31 14 15 20 22 25 11 7 7 11 3 8 8 7 5 12 10 3 10 7 3 2 2 6 3 7 15 18 21 23 26 25 23 28 16 10 6 12 15 15 14 11
26 30 21 8 16 16 20 20 17 11 6 4 7 7 9 6 5 11 10 11 9 8 8 5 4 3 2 1 10 20 22 26 17 13 16 18 8 9 8 12 15 13 12 10 6
Wind_Direction_850mb
305 302 296 286 287 301 308 303 304 303 302 303 300 302 306 306 289 281 262 237 230 250 259 255 275 252 248 242 233 249 248 241 227 228 163 163 175 176 172 166 194 185 78 110 167
309 312 307 294 284 289 300 298 299 302 303 304 304 304 307 312 300 282 252 244 228 238 249 248 247 235 230 241 222 227 232 244 280 190 169 178 191 173 187 199 201 198 189 165 172
301 306 309 301 288 287 290 298 297 301 303 304 306 307 310 319 308 268 252 246 228 226 236 241 239 236 239 226 228 218 247 246 132 191 191 179 192 178 209 202 233 214 200 188 183
294 306 310 296 293 284 282 293 298 300 304 306 307 308 310 307 250 327 246 222 211 208 220 228 221 223 233 218 233 248 236 273 150 161 173 174 181 199 214 168 94 209 191 186 189
294 302 320 289 297 292 282 288 295 299 301 304 305 308 312 258 248 290 305 226 199 204 211 213 216 214 227 241 229 233 223 226 170 167 183 170 179 211 217 220 220 194 181 187 192
305 287 312 291 279 286 284 284 292 295 297 299 302 302 291 270 258 258 292 238 197 196 211 212 222 213 269 269 243 329 195 175 179 159 168 192 177 206 210 191 207 197 191 190 193
308 286 293 289 274 284 290 287 291 291 294 297 298 297 275 249 245 226 278 243 212 205 208 212 216 185 209 226 236 359 185 173 206 183 141 253 216 224 174 185 197 199 194 193 194
316 304 281 283 274 274 288 286 287 285 288 293 295 288 268 268 262 254 257 243 224 213 205 199 191 200 193 106 159 220 218 220 129 187 90 281 260 111 161 183 205 202 198 198 199
329 316 286 281 271 274 286 287 287 288 288 287 291 258 271 287 242 226 228 215 200 194 195 180 178 190 180 199 202 205 217 216 239 259 237 219 274 102 161 199 213 220 217 205 205
337 309 301 306 290 287 292 295 299 289 293 270 256 266 256 309 217 216 202 197 181 173 161 180 198 199 205 199 212 211 223 207 232 233 254 243 259 237 184 222 242 239 231 220 214
335 291 303 308 300 300 308 328 292 230 238 236 320 241 295 329 239 195 185 180 186 184 186 194 207 208 203 216 231 267 225 227 219 52 280 270 278 285 260 209 247 256 250 232 221
318 273 341 311 318 317 316 309 355 319 298 262 250 261 274 290 237 175 175 183 186 195 190 171 218 211 217 215 227 238 226 215 194 139 284 318 287 281 323 300 298 284 257 243 222
225 257 151 65 18 360 306 284 305 317 264 196 234 255 272 205 210 166 185 220 195 209 199 199 171 135 178 194 210 215 242 221 231 143 198 263 266 246 160 160 124 340 281 261 231
180 232 145 105 31 286 293 293 320 298 272 129 168 163 184 230 187 172 204 228 216 199 197 235 123 163 187 216 228 232 172 247 197 204 249 214 287 224 160 170 105 15 7 305 235
194 228 179 173 195 269 286 319 329 131 288 106 129 115 216 260 129 175 205 224 203 167 201 135 159 168 205 221 191 222 156 183 203 244 291 234 253 195 163 184 33 21 20 25 222
220 225 269 283 298 275 309 339 350 239 49 108 3 180 184 239 164 123 193 236 29 156 214 109 89 132 82 100 258 143 140 164 213 253 247 250 219 203 118 29 1 32 41 47 90
243 247 252 272 273 297 319 319 276 325 82 78 54 207 180 174 165 196 188 182 195 165 171 141 125 109 156 125 140 218 197 219 207 198 254 102 222 29 88 53 62 75 69 70 91
249 261 266 281 290 306 318 252 324 25 272 116 264 218 19 285 142 182 181 199 236 290 174 178 162 169 165 312 210 204 275 270 289 293 74 163 236 96 102 100 102 97 89 86 86
254 274 274 289 288 304 277 275 12 23 340 326 101 229 325 242 276 231 233 201 32 349 309 197 103 112 54 346 328 144 225 8 281 253 271 249 121 133 133 118 115 104 97 90 90
257 268 268 260 274 234 265 275 345 48 317 287 344 178 195 193 194 307 187 76 273 338 331 37 116 44 122 177 78 317 28 199 202 260 254 181 237 127 172 151 134 121 106 99 96
247 253 234 250 213 238 264 336 329 177 229 258 311 281 60 158 190 231 21 111 4 342 308 304 279 126 178 207 169 170 209 235 307 285 298 294 96 54 158 153 144 125 117 114 107
257 237 223 210 231 231 271 17 336 264 229 265 282 297 158 223 230 231 224 17 17 334 214 36 306 159 136 90 345 308 272 242 249 172 241 293 296 105 109 139 153 145 143 133 129
258 241 253 193 255 242 207 255 263 252 244 261 269 285 299 203 219 201 161 57 11 307 349 115 220 162 166 175 178 227 206 241 273 291 265 275 89 112 136 161 172 173 172 167 156
284 233 197 211 254 275 289 271 241 225 257 262 296 245 244 225 248 180 143 116 344 335 337 298 283 304 8 58 86 187 204 216 227 241 262 236 263 179 181 192 191 193 194 187 184
232 252 301 204 237 238 252 283 269 241 230 231 216 243 236 239 208 176 131 136 139 248 260 282 246 268 46 23 327 298 224 212 227 247 274 294 303 320 239 217 222 210 205 208 224
250 256 249 265 278 255 222 251 253 232 243 211 248 221 237 275 350 219 176 195 150 183 210 201 119 295 245 234 277 270 256 247 240 253 266 279 282 321 303 207 194 205 210 233 257
237 272 295 277 233 241 232 243 252 228 212 277 294 209 215 81 75 70 79 66 105 169 168 188 168 225 205 67 288 264 247 231 237 244 253 257 21 104 134 185 202 204 220 252 282